Starlink 11272

operational
NORAD ID: 60723 Int'l Des: 2024-152 Owner: SPXS Country: US Constellation: starlink
LEOCIRCULAR

About Starlink 11272

Description loading...

Live Position

Loading 3D Globe...

Upcoming Passes

Altitude History

Altitude vs Time

uPlot chart will show altitude changes over time

Two-Line Element Set

1 60723U 24152D 25307.49580041 .00001449 00000-0 16817-4 0 9995
2 60723 53.1585 18.4419 0001246 87.8384 272.2777 15.69714498 69019
Epoch: Nov 3, 2025 • Age: 28 hours

Current Status

Altitude 365.4 km
Velocity 7.70 km/s
Sub-Earth Point 53.28°N, 178.91°E
Launch Date Aug 28, 2024
Age 1.1 years
Type internet

Technical Details

Classification Payload
Mass 960.00 kg
Dry Mass 910.00 kg
Total Mass 960.00 kg
Length 0.30 m
Diameter 4.10 m
Span 29.00 m
Shape Box + pan
Manufacturer SPXS
Bus Type Starlink V2MD
Phase Status In Orbit
Owner/State SPXS/US

Large Constellations

Loading constellations...